Main page
Satellite images Climate Cyclones Lightning AirportsFAQ Languages Contact Newsletter About
Weather : Europe Africa North America South America Asia Australia-Oceania Others

, Mae Sot, Mae Sot Airport

48375

latitude: , longitude: Thailand, elevation: 16-40N m


METAR: VTPM 241100Z 26010KT 220V280 CAVOK 35/14 Q1007 NOSIG